AFR378E LFPG-CYQX

Flight info

Callsign AFR378E
Flight time N/A
Altitude 36000
Route ELCOB UT300 SENLO UN502 JSY DCT LIZAD DCT LESLU/N0478F380 DCT LONDU DCT DOGAL/M084F380 NATC RIKAL/N0480F400 N576B ANATI DCT PESAC Q921 AGLUK Q941 TAKOL DCT YOW DCT TUKIR Q806 BOBTA TPGUN2
Aircraft A359/H-SDE2E3GHIJ3J4J5LM1ORWXY/LB1D1

Departure

Time N/A
Airport Charles de Gaulle International Airport (LFPG)

Arrival

Time 2026-04-19 19:08
Airport Gander International Airport (CYQX)
Time Latitude Longitude Altitude Speed Heading
2026-04-19 18:44 50.16475 -52.59330 23158 ft 384 kts 231°
2026-04-19 18:45 50.14659 -52.62397 23156 ft 384 kts 231°
2026-04-19 18:45 50.12845 -52.65460 23158 ft 384 kts 231°
2026-04-19 18:45 50.11079 -52.68592 23162 ft 383 kts 234°
2026-04-19 18:45 50.09468 -52.71886 23151 ft 381 kts 236°
2026-04-19 18:46 50.07864 -52.75180 23149 ft 381 kts 235°
2026-04-19 18:46 50.06239 -52.78442 23149 ft 382 kts 234°
2026-04-19 18:46 50.04590 -52.81682 23146 ft 382 kts 233°
2026-04-19 18:46 50.02924 -52.84901 23147 ft 382 kts 233°
2026-04-19 18:47 50.01269 -52.88062 23152 ft 382 kts 233°
2026-04-19 18:47 49.99586 -52.91256 23150 ft 382 kts 233°
2026-04-19 18:47 49.97898 -52.94453 23151 ft 382 kts 233°
2026-04-19 18:47 49.96216 -52.97638 23152 ft 382 kts 233°
2026-04-19 18:48 49.94529 -53.00832 23154 ft 382 kts 233°
2026-04-19 18:48 49.92843 -53.04025 23150 ft 382 kts 233°
2026-04-19 18:48 49.91152 -53.07213 23151 ft 382 kts 232°
2026-04-19 18:48 49.89441 -53.10367 23152 ft 382 kts 232°
2026-04-19 18:49 49.87731 -53.13470 22755 ft 377 kts 231°
2026-04-19 18:49 49.86001 -53.16585 21766 ft 385 kts 231°
2026-04-19 18:49 49.84268 -53.19752 20810 ft 393 kts 231°
2026-04-19 18:49 49.82513 -53.22997 20232 ft 390 kts 231°
2026-04-19 18:50 49.80787 -53.26207 19734 ft 385 kts 231°
2026-04-19 18:50 49.79089 -53.29376 19280 ft 380 kts 231°
2026-04-19 18:50 49.77417 -53.32500 18797 ft 375 kts 231°
2026-04-19 18:50 49.75763 -53.35592 18306 ft 371 kts 231°
2026-04-19 18:51 49.74126 -53.38650 17798 ft 365 kts 231°
2026-04-19 18:51 49.72519 -53.41651 17311 ft 359 kts 231°
2026-04-19 18:51 49.70928 -53.44619 16758 ft 357 kts 231°
2026-04-19 18:52 49.67822 -53.50404 15810 ft 347 kts 231°
2026-04-19 18:52 49.66289 -53.53254 15375 ft 341 kts 231°
2026-04-19 18:52 49.64782 -53.56054 14903 ft 336 kts 231°
2026-04-19 18:52 49.63291 -53.58821 14479 ft 331 kts 231°
2026-04-19 18:53 49.61829 -53.61532 14052 ft 327 kts 231°
2026-04-19 18:53 49.60383 -53.64211 13587 ft 322 kts 231°
2026-04-19 18:53 49.58977 -53.66819 13151 ft 319 kts 231°
2026-04-19 18:53 49.57553 -53.69475 12724 ft 317 kts 231°
2026-04-19 18:54 49.56152 -53.72083 12297 ft 315 kts 231°
2026-04-19 18:54 49.54773 -53.74642 11889 ft 314 kts 230°
2026-04-19 18:54 49.53379 -53.77216 11474 ft 312 kts 230°
2026-04-19 18:54 49.52011 -53.79720 11317 ft 298 kts 230°
2026-04-19 18:55 49.50706 -53.82097 11208 ft 284 kts 230°
2026-04-19 18:55 49.49461 -53.84370 11048 ft 271 kts 230°
2026-04-19 18:55 49.48274 -53.86540 10932 ft 259 kts 230°
2026-04-19 18:55 49.47143 -53.88610 10792 ft 247 kts 230°
2026-04-19 18:56 49.46063 -53.90590 10660 ft 237 kts 231°
2026-04-19 18:56 49.45023 -53.92546 10554 ft 237 kts 232°
2026-04-19 18:56 49.43981 -53.94516 10361 ft 237 kts 231°
2026-04-19 18:56 49.42923 -53.96461 10118 ft 237 kts 230°
2026-04-19 18:57 49.41857 -53.98396 9867 ft 239 kts 232°
2026-04-19 18:57 49.40785 -54.00445 9647 ft 252 kts 233°
2026-04-19 18:57 49.39666 -54.02556 9420 ft 257 kts 231°
2026-04-19 18:57 49.38500 -54.04647 9077 ft 257 kts 230°
2026-04-19 18:58 49.37344 -54.06675 8784 ft 256 kts 229°
2026-04-19 18:58 49.36182 -54.08726 8508 ft 254 kts 230°
2026-04-19 18:58 49.35035 -54.10772 8236 ft 252 kts 230°
2026-04-19 18:58 49.33897 -54.12816 7969 ft 251 kts 230°
2026-04-19 18:59 49.32768 -54.14852 7703 ft 250 kts 230°
2026-04-19 18:59 49.31644 -54.16886 7437 ft 249 kts 230°
2026-04-19 18:59 49.30527 -54.18907 7169 ft 248 kts 230°
2026-04-19 18:59 49.29412 -54.20927 6893 ft 248 kts 230°
2026-04-19 19:00 49.28298 -54.22942 6635 ft 246 kts 230°
2026-04-19 19:00 49.27194 -54.24939 6375 ft 244 kts 230°
2026-04-19 19:00 49.26112 -54.26895 6106 ft 244 kts 230°
2026-04-19 19:00 49.25020 -54.28868 5834 ft 242 kts 230°
2026-04-19 19:01 49.23933 -54.30831 5574 ft 240 kts 230°
2026-04-19 19:01 49.22859 -54.32770 5323 ft 237 kts 230°
2026-04-19 19:01 49.21794 -54.34690 5059 ft 236 kts 230°
2026-04-19 19:01 49.20739 -54.36590 4787 ft 233 kts 230°
2026-04-19 19:02 49.19691 -54.38477 4536 ft 232 kts 230°
2026-04-19 19:02 49.18649 -54.40350 4282 ft 230 kts 230°
2026-04-19 19:02 49.17614 -54.42211 4029 ft 229 kts 230°
2026-04-19 19:02 49.16587 -54.44057 3777 ft 226 kts 230°
2026-04-19 19:03 49.15596 -54.45840 3545 ft 219 kts 230°
2026-04-19 19:03 49.14622 -54.47586 3290 ft 212 kts 230°
2026-04-19 19:03 49.13670 -54.49273 3028 ft 207 kts 227°
2026-04-19 19:03 49.12537 -54.50548 2854 ft 200 kts 211°
2026-04-19 19:04 49.11252 -54.51229 2720 ft 192 kts 196°
2026-04-19 19:04 49.09969 -54.51568 2603 ft 181 kts 197°
2026-04-19 19:04 49.08769 -54.51913 2499 ft 171 kts 197°
2026-04-19 19:04 49.07606 -54.52260 2425 ft 170 kts 197°
2026-04-19 19:05 49.06452 -54.52615 2343 ft 169 kts 196°
2026-04-19 19:05 49.05303 -54.52961 2271 ft 168 kts 195°
2026-04-19 19:05 49.04161 -54.53290 2183 ft 165 kts 196°
2026-04-19 19:05 49.03073 -54.53600 2115 ft 152 kts 195°
2026-04-19 19:06 49.02057 -54.53895 1924 ft 144 kts 195°
2026-04-19 19:06 49.01103 -54.54169 1704 ft 132 kts 197°
2026-04-19 19:06 49.00259 -54.54415 1527 ft 117 kts 195°
2026-04-19 19:06 48.99464 -54.54651 1412 ft 117 kts 196°
2026-04-19 19:07 48.98649 -54.54895 1273 ft 121 kts 194°
2026-04-19 19:07 48.97822 -54.55126 1087 ft 120 kts 193°
2026-04-19 19:07 48.96984 -54.55369 930 ft 124 kts 193°
2026-04-19 19:07 48.96142 -54.55616 773 ft 127 kts 194°
2026-04-19 19:08 48.95269 -54.55866 582 ft 127 kts 196°
2026-04-19 19:08 48.94410 -54.56105 463 ft 124 kts 195°
2026-04-19 19:08 48.93623 -54.56336 459 ft 104 kts 194°
2026-04-19 19:08 48.93124 -54.56482 467 ft 44 kts 191°
2026-04-19 19:09 48.92864 -54.56561 467 ft 25 kts 191°
2026-04-19 19:09 48.92743 -54.56614 469 ft 13 kts 230°
2026-04-19 19:09 48.92749 -54.56720 467 ft 10 kts 297°
2026-04-19 19:09 48.92815 -54.56811 468 ft 16 kts 328°
2026-04-19 19:10 48.92935 -54.56870 468 ft 22 kts
2026-04-19 19:10 48.93106 -54.56824 466 ft 28 kts 11°
2026-04-19 19:10 48.93314 -54.56763 465 ft 27 kts 11°
2026-04-19 19:10 48.93458 -54.56721 464 ft 22 kts 11°
2026-04-19 19:11 48.93619 -54.56674 462 ft 25 kts 11°
2026-04-19 19:11 48.93801 -54.56623 460 ft 28 kts 10°
2026-04-19 19:11 48.94002 -54.56583 458 ft 30 kts 350°
2026-04-19 19:11 48.94175 -54.56697 457 ft 26 kts 333°
2026-04-19 19:12 48.94329 -54.56817 456 ft 23 kts 333°
2026-04-19 19:12 48.94473 -54.56929 457 ft 22 kts 333°
2026-04-19 19:12 48.94569 -54.57006 458 ft 7 kts 326°
2026-04-19 19:12 48.94570 -54.57008 458 ft 0 kts 322°
2026-04-19 19:13 48.94571 -54.57012 458 ft 1 kts 307°
2026-04-19 19:13 48.94565 -54.57032 457 ft 5 kts 237°
2026-04-19 19:13 48.94548 -54.57113 458 ft 6 kts 292°
2026-04-19 19:13 48.94577 -54.57128 459 ft 3 kts
2026-04-19 19:14 48.94599 -54.57117 459 ft 4 kts 18°
2026-04-19 19:14 48.94600 -54.57117 459 ft 0 kts 18°